Regional Weather Roundup
Issued by NWS

Home | Current Version | Previous Version | Text Only | Print | Product List | Glossary On
Versions: 1 2 3 4 5 6 7 8 9 10 11 12 13 14 15 16 17 18 19 20 21 22 23 24 25 26 27 28 29 30 31 32 33 34 35 36 37 38 39 40 41 42 43 44 45 46 47 48 49 50
000
ASUS43 KMKX 291811
RWRWI

WISCONSIN REGIONAL WEATHER ROUNDUP
NATIONAL WEATHER SERVICE MILWAUKEE/SULLIVAN WI
100 PM CDT SAT APR 29 2017

NOTE: "FAIR" INDICATES FEW OR NO CLOUDS BELOW 12,000 FEET WITH NO
SIGNIFICANT WEATHER AND/OR OBSTRUCTIONS TO VISIBILITY.

WIZ001-002-006>008-014>016-023>028-291900-
NORTHWEST WISCONSIN

CITY           SKY/WX    TMP DP  RH WIND       PRES   REMARKS
SUPERIOR ARPT  SUNNY     46  19  33 E10       30.36R
6HR MIN TEMP:  29; 6HR MAX TEMP:  47;

ASHLAND        SUNNY     47  23  38 N15       30.36R
6HR MIN TEMP:  31; 6HR MAX TEMP:  47;

HAYWARD        SUNNY     50  20  30 N14G21    30.30S
6HR MIN TEMP:  27; 6HR MAX TEMP:  51;

SIREN          MOSUNNY   51  17  25 CALM      30.30R
6HR MIN TEMP:  30; 6HR MAX TEMP:  52;

CUMBERLAND     SUNNY     48  18  29 NE7G18    30.28R
RICE LAKE      SUNNY     51  23  34 N7        30.29R
6HR MIN TEMP:  31; 6HR MAX TEMP:  51;

CHETEK         NOT AVBL
LADYSMITH      SUNNY     51  27  39 NE9       30.28S
6HR MIN TEMP:  32; 6HR MAX TEMP:  51;

EAU CLAIRE     MOSUNNY   51  24  34 NE13      30.26S
6HR MIN TEMP:  35; 6HR MAX TEMP:  53;

MENOMONIE      PTSUNNY   51  23  34 NE8       30.27S
6HR MIN TEMP:  35; 6HR MAX TEMP:  51;

NEW RICHMOND   MOSUNNY   51  20  29 NE15G21   30.28S
6HR MIN TEMP:  33; 6HR MAX TEMP:  51;

OSCEOLA        MOSUNNY   53  23  31 N9        30.32R
6HR MIN TEMP:  33; 6HR MAX TEMP:  53;

$$

WIZ003>005-009-010-017-018-291900-
NORTH CENTRAL WISCONSIN

CITY           SKY/WX    TMP DP  RH WIND       PRES   REMARKS
MANITOWISH WTR NOT AVBL
ARBOR VITAE    SUNNY     47  22  38 NE9       30.27S
6HR MIN TEMP:  32; 6HR MAX TEMP:  47;

WOODRUFF       SUNNY     47  22  38 NE9       30.27S
6HR MIN TEMP:  32; 6HR MAX TEMP:  47;

RHINELANDER    SUNNY     49  24  37 E10G18    30.26F
6HR MIN TEMP:  32; 6HR MAX TEMP:  49;

EAGLE RIVER    SUNNY     46  19  34 E13G18    30.27F
6HR MIN TEMP:  31; 6HR MAX TEMP:  47;

LAND O LAKES   SUNNY     45  21  38 NE6       30.29F
6HR MIN TEMP:  31; 6HR MAX TEMP:  46;

PHILLIPS       CLOUDY    48  25  40 NE17      30.26F
6HR MIN TEMP:  30; 6HR MAX TEMP:  48;

TOMAHAWK       SUNNY     48  24  38 E5        30.27F
6HR MIN TEMP:  30; 6HR MAX TEMP:  48;

MEDFORD        MOSUNNY   48  27  44 NE9       30.25S
6HR MIN TEMP:  32; 6HR MAX TEMP:  48;

MERRILL        SUNNY     49  27  42 NE7G17    30.26F
6HR MIN TEMP:  31; 6HR MAX TEMP:  49;

$$

WIZ029-030-035-036-043>047-291900-
CENTRAL WISCONSIN

CITY           SKY/WX    TMP DP  RH WIND       PRES   REMARKS
WAUSAU         CLOUDY    49  26  41 NE12G20   30.24F
6HR MIN TEMP:  33; 6HR MAX TEMP:  49;

MOSINEE        PTSUNNY   46  28  49 NE12G18   30.26F
MARSHFIELD     CLOUDY    48  27  44 E14G20    30.24S
6HR MIN TEMP:  34; 6HR MAX TEMP:  49;

STEVENS POINT  CLOUDY    46  25  43 NE13      30.25F
6HR MIN TEMP:  31; 6HR MAX TEMP:  46;

WAUPACA        CLOUDY    49  28  45 NE12G17   30.27S
6HR MIN TEMP:  37; 6HR MAX TEMP:  50;

WAUTOMA        CLOUDY    46  27  47 E16       30.26S
6HR MIN TEMP:  36; 6HR MAX TEMP:  46;

WISC RAPIDS    CLOUDY    48  26  42 E13G20    30.26S
6HR MIN TEMP:  36; 6HR MAX TEMP:  48;

CAMP DOUGLAS   CLOUDY    46  28  49 NE13      30.25S
$$

WIZ011>013-019>022-031-037>040-048>050-291900-
NORTHEAST WISCONSIN

CITY           SKY/WX    TMP DP  RH WIND       PRES   REMARKS
ANTIGO         SUNNY     47  28  46 NE15      30.26F
6HR MIN TEMP:  32; 6HR MAX TEMP:  47;

SHAWANO        PTSUNNY   50  30  46 E14       30.28F
6HR MIN TEMP:  37; 6HR MAX TEMP:  51;

OCONTO         MOSUNNY   43  29  57 E10G17    30.31S
STURGEON BAY   MOSUNNY   44  29  55 NE13G18   30.30F
6HR MIN TEMP:  37; 6HR MAX TEMP:  45;

GREEN BAY      CLOUDY    45  33  63 NE17      30.30R
6HR MIN TEMP:  37; 6HR MAX TEMP:  46;

MANITOWOC      CLOUDY    40  30  67 NE13G22   30.29F WCI  32
6HR MIN TEMP:  37; 6HR MAX TEMP:  42;

APPLETON       PTSUNNY   45  27  49 E15G22    30.27R
CLINTONVILLE   CLOUDY    46  27  46 E14       30.27S
OSHKOSH        CLOUDY    44  30  57 NE14G24   30.27R
6HR MIN TEMP:  38; 6HR MAX TEMP:  45;

$$

WIZ032>034-041-042-053>061-291900-
SOUTHWEST WISCONSIN

CITY           SKY/WX    TMP DP  RH WIND       PRES   REMARKS
LA CROSSE      CLOUDY    49  27  42 E10       30.24R
6HR MIN TEMP:  39; 6HR MAX TEMP:  49;

SPARTA         CLOUDY    47  27  46 NE14      30.26R
6HR MIN TEMP:  37; 6HR MAX TEMP:  47;

VIROQUA        CLOUDY    44  30  57 NE17      30.22R
6HR MIN TEMP:  36; 6HR MAX TEMP:  44;

BOSCOBEL       CLOUDY    47  30  51 E8        30.24R
6HR MIN TEMP:  43; 6HR MAX TEMP:  47;

PRAIRIE DU CHI CLOUDY    46  29  52 NE9G18    30.22R
6HR MIN TEMP:  42; 6HR MAX TEMP:  46;

PLATTEVILLE    CLOUDY    45  36  69 E17G23    30.21R
6HR MIN TEMP:  42; 6HR MAX TEMP:  46;

$$

WIZ056-057-062-063-064-067-068-291900-
SOUTH CENTRAL WISCONSIN

CITY           SKY/WX    TMP DP  RH WIND       PRES   REMARKS
REEDSBURG      NOT AVBL
BARABOO/DELLS  CLOUDY    43  29  56 NE14G20   30.24R
6HR MIN TEMP:  37; 6HR MAX TEMP:  43;

LONE ROCK      CLOUDY    46  31  55 E13       30.24R
6HR MIN TEMP:  42; 6HR MAX TEMP:  46;

MINERAL POINT  CLOUDY    45  34  65 E12       30.24R
MADISON        CLOUDY    44  33  65 NE16      30.24R
6HR MIN TEMP:  40; 6HR MAX TEMP:  45;

MIDDLETON      CLOUDY    45  34  67 NE12G18   30.25R
6HR MIN TEMP:  42; 6HR MAX TEMP:  46;

WATERTOWN      CLOUDY    44  32  63 NE12      30.24R
6HR MIN TEMP:  40; 6HR MAX TEMP:  45;

MONROE         CLOUDY    45  32  61 NE13G21   30.22R
JANESVILLE     CLOUDY    48  34  57 NE12G17   30.23R
$$

WIZ051-052-058>065-066-070>072-291900-
SOUTHEAST WISCONSIN

CITY           SKY/WX    TMP DP  RH WIND       PRES   REMARKS
MILWAUKEE      CLOUDY    41  31  67 N22G30    30.27R
6HR MIN TEMP:  40; 6HR MAX TEMP:  43;

WAUKESHA       SUNNY     41  28  60 NE17G25   30.25R
MILWAUKEE/TIMM PTSUNNY   39  27  60 NE24      30.27R WCI  28
RACINE         CLOUDY    41  30  65 N25G36    30.27R
6HR MIN TEMP:  40; 6HR MAX TEMP:  43;

KENOSHA        CLOUDY    41  31  67 NE15G25   30.26R
6HR MIN TEMP:  41; 6HR MAX TEMP:  44;

FOND DU LAC    CLOUDY    45  30  55 NE15      30.26R
6HR MIN TEMP:  38; 6HR MAX TEMP:  45;

SHEBOYGAN      CLOUDY    40  34  79 NE24      30.28R WCI  29
6HR MIN TEMP:  36; 6HR MAX TEMP:  42;

WEST BEND      CLOUDY    41  32  70 NE16      30.28R
JUNEAU         CLOUDY    44  32  63 NE12G17   30.26R
6HR MIN TEMP:  38; 6HR MAX TEMP:  44;

$$

LSZ147-162-291900-
LAKE SUPERIOR

STATION/POSITION TIME  TEMP    WIND        PRES    WAVE
                       AIR SEA DIR/SP/G            HT/PER
                 (UTC) (F)     (DEG/KT/KT) (MB)    (FT/S)
DEVILS ISLAND    1800   38      50/  4/  5 1029.3R
SAXON HARBOR     1740   38      10/ 10/ 12 1027.4F
$$

LMZ867-665-643>646-291900-
LAKE MICHIGAN

STATION/POSITION TIME  TEMP    WIND        PRES    WAVE
                       AIR SEA DIR/SP/G            HT/PER
                 (UTC) (F)     (DEG/KT/KT) (MB)    (FT/S)
CHAMBERS ISLAND  1740   40      60/  9/ 12 1026.1S
N MID LAKE BUOY  1750   37 38   70/  2/  2 1027.8F   1/ 3
NORTHPORT PIER   1740   41     100/  5/ 12 1026.4S
KEWAUNEE LAKESHO 1748   40      50/ 13/ 18 1025.8R
SHEBOYGAN LAKESH 1800   38      30/ 26/ 28 1025.9R
PORT WASHINGTON  1802   40      50/ 20/ 25 1026.8R
MILWAUKEE LAKESH 1750   39      20/ 22/ 28   N/A
S MID LAKE BUOY  1650   40 41   20/ 19/ 23 1023.2R   5/ 6
KENOSHA   LAKESH 1800   40



USA.gov is the U.S. government's official web portal to all federal, state and local government web resources and services.